RH
15 17 17 18 23 22 21 25 24 22 23 22 23 24 24 23 23 23 24 26 24 22 24 25 23 21 19 20 20 19 23 25 25 25 25 25 26 27 28 28 27 27 26 26 27 27 27 28 29 30 31 33 35 37 38 39 40 41 43 44 44 43 43 42 39 37 34 32 28 20 14 13 13 13 13 13 12 12 12 12 13 17 23 28 30 26
18 18 17 23 28 25 24 26 24 24 26 25 25 25 26 27 25 23 24 26 25 22 24 26 23 20 18 20 21 21 25 26 26 26 26 27 28 28 28 27 26 26 26 26 26 26 27 28 29 30 32 33 35 37 39 40 42 43 44 45 45 44 44 42 39 37 35 33 28 20 14 13 14 14 14 14 13 13 13 13 14 18 23 31 35 32
21 17 16 21 26 26 27 29 26 26 28 28 27 25 26 29 27 25 25 28 28 23 22 25 23 20 18 20 22 24 25 25 25 26 27 27 28 28 27 26 25 25 25 24 24 25 27 29 30 30 31 33 35 38 40 42 43 44 45 45 45 45 45 43 40 37 36 34 29 20 14 14 15 16 15 15 14 15 15 15 16 19 23 31 37 37
16 16 19 22 23 24 25 28 28 27 27 28 28 26 27 28 25 25 26 29 29 25 24 25 25 22 20 21 24 24 25 25 26 27 28 28 28 27 26 25 25 24 24 23 23 24 26 28 30 30 31 33 35 38 41 43 44 44 45 46 46 46 46 43 40 38 37 35 29 20 15 15 17 17 16 16 15 17 17 16 17 19 22 27 33 35
15 17 22 23 24 24 21 24 26 23 23 28 29 27 28 27 23 25 27 27 27 28 28 27 26 24 22 24 25 25 26 26 27 28 28 28 27 27 26 25 25 24 23 22 23 24 25 27 29 29 31 32 34 37 41 43 44 45 46 47 47 47 46 43 40 38 37 36 30 20 16 17 18 18 17 16 16 17 17 16 17 20 22 23 26 30
17 19 21 22 24 25 22 22 23 21 22 27 29 27 26 25 24 27 29 27 28 28 27 26 28 26 24 24 25 26 28 28 28 28 29 29 28 27 26 25 24 23 23 23 23 24 25 26 27 29 30 31 33 36 40 43 45 46 47 48 48 48 47 42 40 39 38 37 30 21 17 18 19 18 17 17 17 17 17 16 18 20 22 21 20 23
19 21 23 22 24 24 22 22 23 25 24 24 27 28 27 26 26 29 29 29 30 29 26 27 30 29 24 22 24 28 30 29 28 30 29 29 28 27 26 24 23 23 23 23 24 24 25 25 27 27 28 30 33 35 38 42 45 47 49 50 50 50 47 42 40 39 39 37 31 22 19 20 20 18 17 18 18 18 17 17 18 20 22 21 18 18
21 21 22 22 23 22 21 20 23 27 26 25 27 28 28 28 28 30 29 30 32 30 29 30 30 32 29 23 25 29 28 27 28 29 30 28 27 26 24 23 23 24 24 25 25 25 25 26 26 26 27 29 32 34 37 41 45 48 50 51 51 51 48 43 40 39 40 37 32 24 21 22 21 19 18 19 19 17 16 16 18 21 22 21 18 16
21 20 21 22 21 20 20 21 24 26 24 26 29 29 30 30 31 32 31 34 36 31 31 32 29 34 33 25 28 29 24 26 28 29 31 29 27 25 24 24 24 25 26 26 26 26 26 26 26 26 27 29 32 34 36 40 44 48 51 53 52 52 49 44 41 40 40 38 33 26 23 23 21 19 19 20 19 17 17 17 18 21 22 21 19 16
20 20 22 21 20 21 21 22 26 26 24 27 30 31 33 35 35 35 34 36 37 33 33 33 29 33 33 25 27 28 24 29 30 31 33 30 27 27 26 25 25 27 28 28 28 28 27 27 27 26 27 30 32 33 35 38 44 48 51 53 54 54 51 46 43 42 40 38 34 29 25 24 21 19 19 20 20 17 17 17 18 21 23 22 20 17
21 22 24 22 20 21 22 24 28 27 26 27 28 30 32 35 34 36 40 37 34 37 38 34 30 34 35 28 27 28 30 34 32 32 35 31 29 28 27 27 28 29 30 30 30 29 29 29 28 26 27 29 32 33 35 37 42 48 51 53 54 55 53 50 46 44 42 39 35 31 28 25 22 20 20 20 20 18 16 17 18 21 24 23 22 20
22 22 25 23 21 23 22 24 28 29 29 29 29 29 29 32 31 32 39 36 34 41 40 35 34 36 37 32 29 33 35 37 34 33 34 33 31 30 30 30 31 32 32 32 32 31 31 30 29 27 26 28 31 33 34 36 40 47 52 55 55 55 54 53 50 47 44 40 36 33 29 26 23 22 22 21 20 18 16 17 19 23 25 25 24 22
23 23 25 23 23 25 22 23 27 29 32 31 30 32 33 36 37 37 40 38 38 40 35 34 37 35 34 31 30 34 34 35 36 33 32 33 33 33 34 33 34 35 35 33 33 33 32 32 31 28 26 27 29 32 34 36 39 45 52 56 56 56 55 54 52 50 47 42 38 35 30 27 25 24 23 22 21 18 17 18 20 24 27 27 26 23
24 25 25 22 24 25 22 24 25 26 29 27 28 34 36 39 43 47 47 40 37 37 32 35 38 34 32 31 33 35 32 33 34 32 32 34 35 36 37 36 36 37 37 36 35 35 34 34 33 31 28 26 28 30 33 36 39 44 51 56 57 57 55 54 54 52 49 44 41 36 32 28 26 25 25 24 22 19 17 18 20 24 28 29 28 26
22 22 22 22 24 24 23 24 25 25 28 28 30 33 34 37 39 43 46 40 36 38 37 35 36 35 32 33 37 36 33 33 32 33 35 36 38 40 40 39 39 40 40 40 39 39 38 38 37 35 31 28 28 30 33 37 41 45 51 57 59 58 56 55 54 54 51 47 44 39 33 28 26 27 28 26 23 19 18 18 20 24 29 31 30 28
21 20 22 24 24 23 23 25 27 27 28 30 32 31 34 39 38 39 43 41 40 45 46 39 36 36 31 32 40 41 37 36 35 36 39 39 41 42 42 42 42 43 45 45 45 44 43 43 43 41 38 34 34 36 39 43 46 49 54 59 61 59 58 56 54 54 52 49 45 41 35 29 27 28 30 29 25 21 19 19 20 23 29 31 30 28
20 20 25 25 23 24 25 26 26 27 28 30 31 33 35 37 38 39 40 41 44 49 46 37 34 35 31 34 45 48 45 42 41 42 42 42 43 44 44 45 46 49 50 50 48 46 46 47 47 47 46 43 43 45 48 50 53 57 61 62 63 62 61 59 56 54 53 50 46 42 37 31 27 29 32 31 28 23 20 19 20 23 28 31 30 28
21 22 26 26 22 24 26 26 26 27 29 31 32 34 34 34 39 41 40 45 53 55 46 36 36 37 34 36 44 50 51 48 47 48 46 45 46 47 48 50 52 54 53 50 48 46 47 48 50 50 49 46 47 49 54 59 64 67 68 66 65 65 65 63 59 56 55 51 46 43 40 34 28 29 33 33 30 24 20 20 20 21 27 31 31 29
24 23 25 27 25 25 26 25 27 27 28 30 31 32 33 34 40 42 43 48 53 56 51 40 38 39 37 38 43 48 51 50 48 49 49 50 51 52 54 55 56 55 52 49 47 48 49 51 52 53 51 49 51 56 63 68 71 73 72 70 68 69 69 67 63 60 57 52 47 42 41 37 30 29 33 35 33 27 21 20 20 21 26 31 33 30
25 23 25 26 25 26 25 25 29 29 28 30 30 33 35 38 43 44 44 48 51 56 58 49 40 35 37 42 44 46 50 51 50 49 51 54 55 56 57 58 57 55 52 50 50 51 54 56 56 55 53 54 58 65 70 73 74 74 74 72 71 71 72 70 67 63 59 53 47 42 41 40 34 31 34 36 35 31 24 20 20 21 25 31 33 32
26 23 25 26 25 26 25 26 29 30 31 32 33 36 37 38 43 43 42 47 51 57 64 63 48 32 34 43 44 46 51 53 53 53 54 56 56 57 58 59 57 54 52 52 53 56 58 59 59 57 56 58 63 70 72 73 74 74 74 74 73 74 74 72 69 65 61 54 48 44 41 41 38 34 35 37 37 35 28 22 21 21 24 30 34 33
25 25 27 28 25 24 25 28 29 29 32 34 35 39 41 41 44 46 47 48 51 54 59 64 53 32 31 42 45 48 52 53 55 56 56 57 56 57 58 57 55 52 51 52 54 56 57 56 57 58 59 62 67 70 71 72 73 73 73 74 74 76 75 74 70 67 62 56 51 46 42 40 40 39 37 38 39 38 32 24 21 21 23 28 34 35
25 27 29 27 24 24 26 28 30 31 33 34 36 39 42 44 44 46 51 51 51 51 52 62 60 38 31 44 49 50 53 53 54 56 57 57 57 58 57 54 52 51 52 53 54 56 56 57 58 58 60 64 67 68 68 70 72 73 74 75 76 76 75 74 72 68 63 58 53 50 45 40 40 41 41 40 40 40 36 28 23 22 22 27 34 37
25 27 27 27 27 27 28 29 30 32 32 32 36 41 42 44 46 49 54 54 52 50 52 62 60 40 36 49 52 51 54 54 55 57 58 58 57 56 55 52 51 52 53 55 56 57 58 57 57 57 60 63 63 62 62 64 68 71 73 75 75 75 73 72 70 67 64 59 55 53 50 45 41 42 44 43 42 42 40 33 25 22 23 26 33 39
25 29 30 30 30 30 32 34 34 33 33 33 38 44 44 46 51 53 53 53 52 50 54 61 56 40 41 50 51 54 56 55 56 59 60 60 58 54 50 47 49 50 52 55 56 56 55 52 50 51 54 55 55 56 57 59 62 65 67 70 70 70 69 67 66 65 63 59 57 57 55 51 46 45 46 45 44 44 43 38 28 23 24 27 32 39
26 30 30 30 33 35 34 35 34 35 37 36 39 43 44 46 51 51 52 53 53 54 56 59 54 42 42 48 52 55 57 56 58 60 61 61 57 52 49 48 50 52 54 56 56 56 53 51 50 50 49 47 47 50 53 56 58 60 61 63 64 64 64 63 62 62 61 59 58 59 59 56 52 51 50 47 47 47 46 43 34 25 25 28 31 38
30 31 30 31 34 34 31 31 34 37 38 36 38 42 45 49 50 53 57 56 56 59 57 54 56 49 43 48 52 54 56 58 58 58 58 56 51 49 50 51 53 55 57 59 60 58 56 54 54 53 51 49 47 47 48 50 53 56 58 60 61 62 61 62 61 60 59 58 58 60 61 59 58 59 56 51 49 49 48 47 40 30 26 29 32 36
31 30 31 33 33 32 31 32 34 38 37 37 38 42 47 52 52 54 58 55 56 63 57 49 55 55 48 49 53 54 57 57 56 54 51 48 47 48 50 51 53 56 59 62 63 61 59 58 58 56 54 52 50 49 48 48 48 50 52 55 59 61 62 62 62 61 59 56 57 60 62 61 62 65 65 59 52 51 51 49 45 36 29 30 33 36
31 32 33 34 34 33 34 34 36 39 39 39 43 46 49 54 55 54 55 53 56 61 55 48 52 55 52 52 54 56 58 54 50 48 46 47 49 49 50 52 54 58 61 63 64 63 62 61 59 57 55 54 52 51 49 46 43 43 45 49 53 57 60 62 61 62 60 57 56 59 62 63 64 68 72 67 57 53 53 51 49 43 34 31 34 37
31 36 38 38 37 35 36 38 40 42 43 44 48 51 51 53 56 55 54 54 55 56 54 51 52 53 54 56 56 56 54 50 45 46 49 51 50 50 52 55 57 61 64 65 65 64 62 60 58 55 54 52 51 50 46 41 37 36 37 42 46 49 54 58 59 60 60 56 54 57 60 62 64 67 74 74 63 55 54 53 52 49 40 33 35 39
30 37 42 42 38 36 38 42 44 45 47 48 49 51 51 52 54 56 55 55 56 56 55 54 54 54 55 55 55 54 50 47 46 49 51 51 51 54 57 58 61 64 64 64 63 62 60 58 57 54 52 50 49 47 44 38 35 34 34 37 42 46 49 53 55 56 55 52 50 51 54 57 60 63 71 76 69 58 54 54 54 53 47 38 36 40
32 39 44 45 42 40 41 44 45 45 47 49 50 51 52 53 55 57 57 56 56 54 53 55 57 56 53 53 55 54 51 50 50 51 53 55 56 59 60 62 64 64 63 62 60 59 58 57 54 51 49 49 47 44 41 36 33 32 31 33 38 43 46 49 52 53 52 50 48 48 51 54 57 60 66 72 72 62 55 55 55 55 53 45 39 41
40 42 45 47 48 46 45 46 45 43 45 49 49 48 49 52 53 54 54 54 52 51 53 57 57 56 57 58 58 55 52 52 54 55 58 60 61 61 62 64 64 61 60 58 57 57 56 53 51 49 47 45 41 37 35 34 32 30 30 31 35 41 45 46 49 51 50 49 49 50 53 55 57 61 64 69 71 65 56 56 57 57 56 52 44 42
46 45 47 49 50 50 49 46 42 41 46 48 46 45 46 46 47 48 47 48 49 50 54 57 58 61 64 62 58 55 53 54 57 60 62 63 63 63 62 61 60 59 58 58 56 53 50 47 45 43 41 38 35 32 31 32 31 30 29 28 31 38 44 46 46 47 47 49 51 54 57 58 59 62 65 68 71 67 57 55 58 58 58 56 51 46
48 46 49 51 51 51 50 46 44 45 46 45 44 45 45 44 46 48 48 49 52 52 55 59 63 65 63 58 56 57 58 58 60 62 62 61 61 60 59 59 59 59 56 52 48 43 40 39 38 37 37 37 35 33 31 30 30 30 29 28 29 33 39 44 46 46 46 48 52 55 58 59 60 63 65 67 71 70 59 53 57 59 58 59 56 51
49 47 49 50 50 49 47 46 46 44 42 40 41 42 43 46 50 52 50 52 53 55 58 62 63 61 58 58 60 62 61 59 56 55 56 56 55 56 58 58 55 50 45 41 38 37 36 37 37 38 38 38 38 36 34 31 31 33 33 33 32 30 32 37 42 44 44 47 51 54 57 59 60 62 65 66 70 73 64 53 53 59 59 59 59 56
46 46 45 46 47 47 48 48 46 42 40 42 45 47 48 51 55 55 53 52 53 59 63 61 58 58 59 60 61 60 58 54 47 43 45 47 49 50 49 45 42 40 38 36 36 36 36 37 38 39 39 39 39 39 40 38 36 36 37 37 35 33 31 32 36 40 42 45 49 53 55 57 59 60 65 68 70 74 70 57 52 57 60 59 60 59
41 43 41 42 46 48 49 51 54 55 52 50 52 54 56 57 57 55 54 55 57 61 61 59 59 60 60 57 54 52 50 48 42 38 38 41 42 41 37 34 34 35 35 35 34 34 35 36 37 38 40 42 42 42 45 46 42 39 38 38 38 38 36 34 34 36 39 44 48 51 53 56 58 58 63 70 74 78 77 66 54 54 60 61 59 61
41 44 43 42 47 52 54 58 64 64 59 55 56 59 58 56 54 53 55 60 61 59 58 58 59 57 53 50 48 45 46 47 44 39 38 39 36 33 32 31 30 31 31 31 33 35 36 37 38 40 43 45 46 46 46 48 48 44 40 39 41 42 41 41 42 41 40 42 44 48 51 56 60 60 61 69 78 83 84 79 65 55 57 63 62 60
43 46 46 47 53 59 62 66 68 64 60 58 60 61 57 52 53 56 58 60 58 54 53 53 51 49 47 45 43 43 45 47 45 39 36 34 31 29 30 30 30 30 31 32 34 37 38 40 41 43 44 45 48 49 48 49 51 51 47 45 46 47 46 47 49 49 46 45 45 46 50 55 59 63 63 66 76 84 87 88 80 66 58 61 64 63
50 53 54 56 62 64 66 68 68 65 64 64 63 60 54 50 55 60 59 55 51 48 46 45 45 44 43 43 43 44 44 42 39 35 31 30 29 29 30 31 32 33 33 34 36 37 38 38 39 41 43 46 50 53 54 55 55 54 53 53 54 55 53 52 54 54 53 53 51 50 52 53 55 62 67 67 73 83 87 89 89 80 67 62 65 66
53 57 58 61 65 66 69 72 70 67 66 63 60 56 53 55 59 58 52 48 45 43 42 42 42 42 42 43 44 42 39 35 31 29 28 28 30 31 32 33 33 33 34 34 35 36 37 37 37 38 40 44 50 56 59 60 59 58 57 57 59 61 62 61 62 62 61 61 60 57 56 56 54 60 68 70 73 82 88 89 91 89 79 68 66 69
52 56 60 64 65 66 71 75 73 70 65 59 55 53 53 55 55 49 43 42 42 42 42 41 41 43 44 43 40 35 31 29 27 27 28 29 31 33 33 33 34 34 34 35 36 39 42 43 41 39 41 47 54 60 63 63 64 63 63 62 64 68 73 74 74 74 73 70 69 66 65 64 60 59 66 72 76 82 88 89 91 92 87 77 70 70
56 57 60 65 66 67 73 74 70 64 59 53 51 50 49 47 46 43 42 42 41 40 42 42 42 42 40 37 33 29 29 29 29 30 30 31 32 33 33 34 35 36 38 39 41 45 51 53 50 46 47 53 61 67 68 66 66 67 68 70 72 76 82 86 86 86 85 82 79 75 73 72 68 63 65 71 77 83 88 89 91 92 91 84 76 71
58 56 57 61 63 65 67 65 58 53 49 47 46 44 43 43 43 42 42 42 41 42 43 43 41 37 32 30 29 29 29 30 31 31 31 31 32 33 35 36 37 39 42 43 45 51 59 62 59 55 55 59 67 74 72 69 70 71 71 73 76 79 87 93 94 94 92 90 88 84 81 80 77 70 66 69 76 84 88 89 91 92 92 89 82 73
57 55 55 57 60 60 56 53 50 47 43 42 41 41 41 41 42 41 41 41 42 42 41 39 35 31 28 29 31 31 30 31 31 31 31 33 34 35 37 37 37 39 43 44 47 55 64 66 63 61 61 62 67 71 70 70 74 75 72 73 76 82 90 96 98 98 97 95 94 92 90 89 87 80 71 69 75 84 89 90 92 93 93 92 86 77
56 55 55 55 57 57 52 47 44 41 39 39 39 39 39 40 40 41 42 43 41 38 35 32 29 29 28 30 33 33 32 32 34 34 34 35 36 36 36 35 36 38 41 45 52 61 67 68 67 67 66 64 63 64 67 70 73 73 71 73 79 86 92 96 98 99 99 98 98 97 97 96 95 90 80 72 75 84 89 91 93 93 93 93 89 81
55 54 54 53 53 53 47 41 37 35 36 38 38 37 38 39 39 40 41 41 38 33 31 29 29 29 30 31 34 36 35 35 37 38 36 35 36 37 36 35 36 37 40 48 58 65 68 69 71 71 68 63 62 63 66 69 69 68 70 76 84 90 93 96 99 98 96 98 100 100 100 99 97 96 89 78 77 85 89 90 93 94 93 93 91 84
52 52 51 49 48 45 41 37 35 34 34 35 36 38 39 39 38 37 37 35 32 30 30 29 29 30 33 35 38 40 39 37 38 39 37 36 37 37 36 36 36 38 43 53 61 66 70 73 74 70 65 63 64 65 66 66 66 68 73 81 88 91 92 96 100 98 95 97 99 100 100 100 98 98 94 83 79 85 90 91 93 95 94 94 93 87
50 49 47 46 45 42 38 36 38 39 37 36 37 38 38 38 37 35 32 30 29 30 30 30 30 31 33 36 39 41 40 38 39 40 38 36 36 36 36 37 38 40 47 55 60 64 67 70 72 69 64 62 64 65 65 66 68 73 80 86 89 89 90 96 101 100 97 98 99 99 100 100 99 99 96 88 83 87 91 92 93 95 95 94 94 89
45 43 42 43 43 41 39 38 40 43 42 41 40 39 38 37 35 31 29 29 29 30 31 33 35 35 34 34 35 38 41 42 41 40 37 34 33 34 34 36 38 42 47 52 55 58 61 64 69 68 63 61 62 64 66 68 74 82 88 90 89 88 89 95 100 101 100 100 100 99 100 100 100 100 98 92 87 89 92 92 93 95 95 95 95 90